Tiempo cada hora Santander

Hoy, 23 Octubre, Viernes

Tiempo Temperatura Precipitaciones Viento Presión Humedad
00:00 +17°C° 0 mm 3 mps 759 mmHg 73%
01:00 +17°C° 0.2 mm 3 mps 759 mmHg 74%
02:00 +16°C° 0.2 mm 3 mps 759 mmHg 75%
03:00 +16°C° 0.2 mm 3 mps 760 mmHg 76%
04:00 +14°C° 0.8 mm 3 mps 760 mmHg 79%
05:00 +13°C° 0.8 mm 3 mps 760 mmHg 83%
06:00 +12°C° 0.8 mm 3 mps 761 mmHg 86%
07:00 +14°C° 0.3 mm 3 mps 762 mmHg 83%
08:00 +15°C° 0.3 mm 4 mps 762 mmHg 80%
09:00 +17°C° 0.3 mm 4 mps 763 mmHg 77%
10:00 +16°C° 0.4 mm 5 mps 763 mmHg 80%
11:00 +16°C° 0.4 mm 6 mps 764 mmHg 82%
12:00 +16°C° 0.4 mm 6 mps 764 mmHg 84%
13:00 +16°C° 0.3 mm 6 mps 764 mmHg 87%
14:00 +15°C° 0.3 mm 5 mps 764 mmHg 89%
15:00 +15°C° 0.3 mm 5 mps 765 mmHg 91%
16:00 +15°C° 0.1 mm 4 mps 765 mmHg 93%
17:00 +14°C° 0.1 mm 4 mps 765 mmHg 95%
18:00 +14°C° 0.1 mm 4 mps 766 mmHg 97%
19:00 +13°C° 0 mm 3 mps 766 mmHg 97%
20:00 +14°C° 0 mm 2 mps 767 mmHg 96%
21:00 +14°C° 0 mm 2 mps 767 mmHg 96%
22:00 +14°C° 0 mm 2 mps 767 mmHg 96%
23:00 +13°C° 0 mm 2 mps 767 mmHg 96%

Mañana, 24 Octubre, Sábado

Tiempo Temperatura Precipitaciones Viento Presión Humedad
00:00 +13°C° 0 mm 2 mps 767 mmHg 95%
01:00 +12°C° 0 mm 2 mps 767 mmHg 94%
02:00 +12°C° 0 mm 2 mps 767 mmHg 93%
03:00 +12°C° 0 mm 2 mps 766 mmHg 92%
04:00 +11°C° 0 mm 3 mps 766 mmHg 91%
05:00 +11°C° 0 mm 3 mps 766 mmHg 90%
06:00 +11°C° 0 mm 3 mps 766 mmHg 89%
07:00 +12°C° 0 mm 3 mps 766 mmHg 85%
08:00 +13°C° 0 mm 3 mps 765 mmHg 82%
09:00 +16°C° 0 mm 3 mps 765 mmHg 78%
10:00 +18°C° 0 mm 2 mps 765 mmHg 69%
11:00 +19°C° 0 mm 2 mps 764 mmHg 59%
12:00 +22°C° 0 mm 1 mps 764 mmHg 50%
13:00 +22°C° 0 mm 1 mps 763 mmHg 51%
14:00 +22°C° 0 mm 1 mps 762 mmHg 52%
15:00 +21°C° 0 mm 2 mps 762 mmHg 53%
16:00 +19°C° 0 mm 2 mps 762 mmHg 60%
17:00 +17°C° 0 mm 2 mps 761 mmHg 67%
18:00 +15°C° 0 mm 2 mps 761 mmHg 74%
19:00 +14°C° 0 mm 3 mps 761 mmHg 74%
20:00 +14°C° 0 mm 3 mps 761 mmHg 74%
21:00 +14°C° 0 mm 3 mps 761 mmHg 74%
22:00 +14°C° 0 mm 4 mps 760 mmHg 72%
23:00 +14°C° 0 mm 5 mps 760 mmHg 71%

Pasado mañana, 25 Octubre, Domingo

Tiempo Temperatura Precipitaciones Viento Presión Humedad
00:00 +15°C° 0 mm 6 mps 759 mmHg 70%
01:00 +15°C° 0 mm 6 mps 759 mmHg 69%
02:00 +16°C° 0 mm 7 mps 758 mmHg 67%
03:00 +16°C° 0 mm 7 mps 758 mmHg 66%
04:00 +16°C° 0.2 mm 7 mps 758 mmHg 72%
05:00 +15°C° 0.2 mm 7 mps 758 mmHg 78%
06:00 +14°C° 0.2 mm 7 mps 758 mmHg 84%
07:00 +13°C° 2.8 mm 6 mps 758 mmHg 88%
08:00 +12°C° 2.8 mm 5 mps 758 mmHg 93%
09:00 +11°C° 2.8 mm 4 mps 758 mmHg 98%
10:00 +11°C° 2.3 mm 4 mps 758 mmHg 96%
11:00 +11°C° 2.3 mm 4 mps 758 mmHg 95%
12:00 +11°C° 2.3 mm 4 mps 758 mmHg 94%
13:00 +12°C° 0.4 mm 5 mps 758 mmHg 91%
14:00 +13°C° 0.4 mm 6 mps 759 mmHg 87%
15:00 +12°C° 0.4 mm 7 mps 759 mmHg 84%
16:00 +11°C° 0.1 mm 7 mps 759 mmHg 86%
17:00 +10°C° 0.1 mm 7 mps 759 mmHg 89%
18:00 +9°C° 0.1 mm 7 mps 759 mmHg 91%
19:00 +9°C° 0.1 mm 7 mps 759 mmHg 91%
20:00 +8°C° 0.1 mm 7 mps 759 mmHg 90%
21:00 +8°C° 0.1 mm 7 mps 759 mmHg 89%
22:00 +7°C° 0.2 mm 8 mps 759 mmHg 89%
23:00 +7°C° 0.2 mm 8 mps 759 mmHg 88%

, 26 Octubre, Lunes

Tiempo Temperatura Precipitaciones Viento Presión Humedad
00:00 +6°C° 0.2 mm 9 mps 759 mmHg 88%
01:00 +6°C° 0.8 mm 9 mps 759 mmHg 88%
02:00 +6°C° 0.8 mm 9 mps 759 mmHg 88%
03:00 +6°C° 0.8 mm 9 mps 759 mmHg 88%
04:00 +6°C° 0.8 mm 9 mps 759 mmHg 88%
05:00 +6°C° 0.8 mm 9 mps 760 mmHg 89%
06:00 +6°C° 0.8 mm 9 mps 760 mmHg 89%
07:00 +7°C° 1.2 mm 9 mps 760 mmHg 89%
08:00 +7°C° 1.2 mm 9 mps 760 mmHg 89%
09:00 +8°C° 1.2 mm 9 mps 761 mmHg 90%
10:00 +8°C° 0.9 mm 9 mps 761 mmHg 90%
11:00 +8°C° 0.9 mm 9 mps 761 mmHg 90%
12:00 +10°C° 0.9 mm 9 mps 762 mmHg 91%
13:00 +10°C° 0.9 mm 9 mps 762 mmHg 92%
14:00 +9°C° 0.9 mm 8 mps 762 mmHg 93%
15:00 +9°C° 0.9 mm 8 mps 762 mmHg 93%
16:00 +9°C° 0.6 mm 8 mps 762 mmHg 94%
17:00 +9°C° 0.6 mm 7 mps 762 mmHg 94%
18:00 +9°C° 0.6 mm 7 mps 763 mmHg 94%
19:00 +9°C° 0.5 mm 7 mps 763 mmHg 94%
20:00 +9°C° 0.5 mm 6 mps 763 mmHg 94%
21:00 +9°C° 0.5 mm 6 mps 764 mmHg 93%
22:00 +9°C° 0.5 mm 6 mps 764 mmHg 93%
23:00 +9°C° 0.5 mm 6 mps 764 mmHg 92%

26 Octubre, Lunes

Tiempo Temperatura Precipitaciones Viento Presión Humedad
00:00 +6°C° 0.2 mm 9 mps 759 mmHg 88%
01:00 +6°C° 0.8 mm 9 mps 759 mmHg 88%
02:00 +6°C° 0.8 mm 9 mps 759 mmHg 88%
03:00 +6°C° 0.8 mm 9 mps 759 mmHg 88%
04:00 +6°C° 0.8 mm 9 mps 759 mmHg 88%
05:00 +6°C° 0.8 mm 9 mps 760 mmHg 89%
06:00 +6°C° 0.8 mm 9 mps 760 mmHg 89%
07:00 +7°C° 1.2 mm 9 mps 760 mmHg 89%
08:00 +7°C° 1.2 mm 9 mps 760 mmHg 89%
09:00 +8°C° 1.2 mm 9 mps 761 mmHg 90%
10:00 +8°C° 0.9 mm 9 mps 761 mmHg 90%
11:00 +8°C° 0.9 mm 9 mps 761 mmHg 90%
12:00 +10°C° 0.9 mm 9 mps 762 mmHg 91%
13:00 +10°C° 0.9 mm 9 mps 762 mmHg 92%
14:00 +9°C° 0.9 mm 8 mps 762 mmHg 93%
15:00 +9°C° 0.9 mm 8 mps 762 mmHg 93%
16:00 +9°C° 0.6 mm 8 mps 762 mmHg 94%
17:00 +9°C° 0.6 mm 7 mps 762 mmHg 94%
18:00 +9°C° 0.6 mm 7 mps 763 mmHg 94%
19:00 +9°C° 0.5 mm 7 mps 763 mmHg 94%
20:00 +9°C° 0.5 mm 6 mps 763 mmHg 94%
21:00 +9°C° 0.5 mm 6 mps 764 mmHg 93%
22:00 +9°C° 0.5 mm 6 mps 764 mmHg 93%
23:00 +9°C° 0.5 mm 6 mps 764 mmHg 92%

27 Octubre, Martes

Tiempo Temperatura Precipitaciones Viento Presión Humedad
00:00 +9°C° 0.5 mm 6 mps 764 mmHg 91%
01:00 +8°C° 0.2 mm 6 mps 763 mmHg 90%
02:00 +8°C° 0.2 mm 5 mps 763 mmHg 89%
03:00 +8°C° 0.2 mm 5 mps 763 mmHg 88%
04:00 +7°C° 0 mm 4 mps 763 mmHg 87%
05:00 +7°C° 0 mm 4 mps 763 mmHg 86%
06:00 +7°C° 0 mm 4 mps 763 mmHg 85%
07:00 +9°C° 0 mm 3 mps 763 mmHg 82%
08:00 +10°C° 0 mm 3 mps 763 mmHg 79%
09:00 +11°C° 0 mm 3 mps 763 mmHg 76%
10:00 +11°C° 0 mm 3 mps 763 mmHg 74%
11:00 +11°C° 0 mm 3 mps 762 mmHg 73%
12:00 +12°C° 0 mm 4 mps 762 mmHg 72%
13:00 +12°C° 0.1 mm 4 mps 762 mmHg 74%
14:00 +12°C° 0.1 mm 4 mps 762 mmHg 76%
15:00 +12°C° 0.1 mm 4 mps 761 mmHg 78%
16:00 +12°C° 0.1 mm 4 mps 761 mmHg 78%
17:00 +12°C° 0.1 mm 4 mps 761 mmHg 79%
18:00 +12°C° 0.1 mm 4 mps 761 mmHg 79%
19:00 +12°C° 0 mm 4 mps 762 mmHg 79%
20:00 +13°C° 0 mm 3 mps 762 mmHg 80%
21:00 +13°C° 0 mm 3 mps 762 mmHg 80%
22:00 +13°C° 0.1 mm 3 mps 762 mmHg 81%
23:00 +12°C° 0.1 mm 3 mps 763 mmHg 82%

28 Octubre, Miércoles

Tiempo Temperatura Precipitaciones Viento Presión Humedad
00:00 +12°C° 0.1 mm 3 mps 763 mmHg 82%
01:00 +12°C° 0.1 mm 4 mps 763 mmHg 83%
02:00 +12°C° 0.1 mm 4 mps 763 mmHg 83%
03:00 +12°C° 0.1 mm 4 mps 763 mmHg 83%
04:00 +12°C° 0.1 mm 3 mps 763 mmHg 84%
05:00 +12°C° 0.1 mm 3 mps 763 mmHg 84%
06:00 +13°C° 0.1 mm 2 mps 763 mmHg 84%
07:00 +14°C° 0.1 mm 2 mps 764 mmHg 84%
08:00 +15°C° 0.1 mm 2 mps 764 mmHg 83%
09:00 +16°C° 0.1 mm 2 mps 765 mmHg 82%
10:00 +16°C° 0.1 mm 2 mps 765 mmHg 80%
11:00 +17°C° 0.1 mm 2 mps 765 mmHg 78%
12:00 +18°C° 0.1 mm 2 mps 765 mmHg 77%
13:00 +17°C° 0.1 mm 2 mps 765 mmHg 79%
14:00 +17°C° 0.1 mm 2 mps 765 mmHg 81%
15:00 +17°C° 0.1 mm 2 mps 765 mmHg 83%
16:00 +16°C° 0 mm 2 mps 766 mmHg 86%
17:00 +16°C° 0 mm 1 mps 766 mmHg 88%
18:00 +15°C° 0 mm 1 mps 766 mmHg 91%
19:00 +15°C° 0 mm 1 mps 767 mmHg 91%
20:00 +14°C° 0 mm 1 mps 767 mmHg 92%
21:00 +14°C° 0 mm 2 mps 768 mmHg 92%
22:00 +14°C° 0 mm 2 mps 768 mmHg 93%
23:00 +13°C° 0 mm 2 mps 768 mmHg 93%
Mostrar más

Necesitamos Su Consentimiento

Meteoprog y nuestros Proveedores de Servicios pueden almacenar y acceder a sus datos personales como cookies, identificadores de dispositivo u otras tecnologías similares de su dispositivo y procesar dichos datos para personalizar contenido y anuncios, además de ofrecer funciones de redes sociales y analizar el tráfico.

  • Almacenar y/o acceder a información en su dispositivo

    Se puede almacenar o acceder a cookies, identificadores de dispositivo u otra información de su dispositivo para los fines anteriormente indicados.

  • Anuncios y contenido personalizados, medición de anuncios y contenido, percepciones del público, y desarrollo de productos

    Los anuncios y el contenido pueden personalizarse en base a su perfil. Se pueden añadir más datos para personalizar mejor los anuncios y contenidos. Se puede medir el rendimiento de los anuncios y contenidos. Se puede obtener la percepción sobre el público que ha visto los anuncios y contenidos. Dichos datos pueden usarse para desarrollar o mejorar la experiencia del usuario, sistemas y software.

Al hacer clic en ‘Estoy De Acuerdo’ usted permitirá el uso de las cookies, identificadores de dispositivo, balizas web u otras tecnologías similares indicadas. Su configuración puede cambiarse desde el navegador de su dispositivo.

Para ciertos fines, los intereses legítimos pueden ser considerados por encima del consentimiento. Puede leer más sobre ello en nuestra Política de Privacidad y Cookies.